Wind_Speed
28 27 27 27 28 30 31 32 32 32 32 32 32 32 32 32 31 30 30 30 31 31 31 32 33 33 35 35 35 35 35 34 34 34 35 35 36 37 38 38 39 40 40
31 30 29 29 29 31 32 33 34 34 34 34 33 33 33 33 33 31 31 32 33 33 33 34 35 36 37 37 37 37 37 37 37 38 39 40 41 42 42 43 44 44 45
33 32 31 31 31 32 33 34 35 35 35 35 34 34 35 34 34 33 32 32 33 34 35 36 37 38 39 40 40 40 40 40 41 42 43 44 45 46 47 48 49 50 50
35 34 34 33 34 34 35 35 35 36 36 35 35 35 36 36 35 35 34 34 35 35 37 39 40 41 42 42 42 43 43 44 45 46 47 48 49 51 52 53 53 54 55
36 36 36 36 36 36 37 37 37 37 36 36 36 37 37 37 37 37 37 37 38 39 40 41 42 44 44 45 45 46 47 48 49 50 51 52 53 55 56 56 57 58 58
36 37 37 37 37 38 38 39 39 39 38 38 38 39 39 39 40 40 41 41 42 43 44 44 45 46 47 47 48 49 50 51 52 54 55 56 57 58 59 60 60 61 61
37 37 37 38 38 38 39 40 40 39 40 40 40 41 41 42 42 43 43 44 45 45 46 47 48 49 49 50 51 53 54 55 56 57 58 59 59 60 60 61 62 63 64
37 37 38 39 39 39 39 39 39 40 41 42 43 44 44 44 44 45 46 47 48 48 48 49 50 51 52 53 55 57 58 59 60 60 61 61 62 62 63 64 65 66 67
39 39 39 39 39 38 38 38 38 39 41 42 44 45 46 46 46 45 46 48 49 50 51 52 53 54 56 58 59 61 62 62 62 63 64 65 66 67 68 69 69 71 72
39 39 40 40 39 39 39 39 40 41 42 43 45 46 47 48 48 47 47 49 49 50 51 52 54 57 60 62 64 65 66 66 66 67 68 69 70 71 72 73 73 74 75
40 40 40 40 40 40 40 40 41 42 43 45 46 47 48 49 50 50 49 50 51 52 53 54 56 58 61 63 65 66 68 69 70 70 71 72 73 74 75 77 78 79 81
41 40 40 40 40 41 41 41 42 44 45 47 48 49 50 51 52 52 52 51 51 52 54 57 59 61 63 64 66 67 69 70 71 72 74 75 77 79 80 82 84 87 89
41 41 41 40 40 40 40 41 43 45 46 48 49 50 51 52 53 54 54 54 54 55 57 59 62 64 66 67 67 69 70 71 73 75 77 79 82 85 88 90 93 96 99
41 40 40 39 39 40 41 43 45 46 48 49 50 51 52 53 53 54 56 57 58 58 60 61 64 66 67 68 69 71 72 74 76 79 82 86 90 93 97 100 102 103 104
41 40 39 39 39 40 42 44 45 47 49 50 51 51 52 53 54 55 58 60 63 64 63 63 65 67 68 70 72 74 76 79 83 87 92 96 99 102 104 104 102 99 94
40 39 39 39 40 41 43 44 46 48 49 50 51 52 53 54 55 58 60 62 65 67 68 67 68 70 71 73 76 79 83 88 92 97 101 104 105 104 100 93 86 77 69
40 39 39 39 40 42 43 45 47 49 50 51 52 52 54 56 58 60 62 64 66 68 69 69 71 73 75 79 82 87 92 96 100 103 103 101 96 88 78 69 61 54 51
39 39 39 40 41 43 44 46 48 49 51 52 53 54 56 58 60 63 64 66 67 69 71 71 73 76 81 85 90 94 98 100 99 97 92 84 74 64 56 50 46 44 42
38 38 39 40 42 44 45 47 49 50 51 53 55 57 59 61 63 65 66 67 68 70 73 76 78 82 88 93 96 98 97 93 87 79 71 62 54 49 45 43 42 41 41
37 38 39 41 43 45 47 48 49 51 52 55 57 59 61 63 64 65 66 68 70 73 77 82 85 89 94 97 97 93 85 76 67 60 54 49 46 44 43 42 41 40 40
36 37 40 43 45 46 47 47 49 52 54 56 58 61 62 63 64 65 67 70 74 78 83 88 92 95 96 93 88 80 70 59 52 49 45 44 43 43 42 42 42 41 40
36 38 41 43 45 45 46 48 50 53 55 58 60 61 62 64 65 67 70 75 80 85 90 94 96 95 89 83 74 64 56 48 43 44 44 42 43 42 42 42 42 41 40
37 41 42 43 43 44 47 49 52 54 57 59 60 61 62 64 67 70 74 79 85 91 95 96 92 85 76 67 60 52 47 44 42 44 44 40 40 39 40 41 41 40 39
39 40 40 41 44 46 48 51 53 55 57 58 60 62 63 66 71 75 79 84 89 92 92 88 81 71 63 55 49 45 42 41 40 42 44 40 37 37 38 39 40 38 37
38 39 41 43 45 47 49 52 53 55 56 58 60 63 67 70 75 80 84 88 90 88 83 75 66 58 52 48 46 44 42 42 39 39 42 40 37 35 34 36 37 36 35
38 40 41 43 46 48 50 51 53 55 56 59 62 67 72 76 81 85 88 88 84 78 69 60 54 50 47 46 45 45 44 43 40 38 39 37 36 35 30 31 34 34 33
Wind_Direction
274 274 273 271 269 269 270 270 271 271 273 276 279 281 282 283 283 285 283 280 279 280 282 285 289 292 294 295 295 294 292 290 289 288 286 284 283 281 280 277 276 274 272
276 277 277 276 273 272 273 273 273 273 274 275 277 279 282 283 283 285 285 284 282 283 284 286 289 292 295 295 295 294 292 290 289 288 287 285 284 282 281 279 277 276 274
276 277 279 278 276 275 275 275 275 275 275 276 278 279 282 284 285 286 287 287 287 287 287 289 291 293 295 295 295 293 291 289 288 287 286 285 284 282 281 280 278 277 275
274 276 278 278 277 277 276 276 276 276 276 277 278 280 282 285 287 289 290 290 290 290 290 291 292 293 294 294 294 292 291 289 287 286 285 284 283 282 281 280 278 277 275
275 277 278 278 278 277 277 277 276 277 277 278 279 281 282 285 288 289 290 291 291 291 291 292 293 294 294 294 293 292 290 289 287 286 285 284 283 282 281 280 279 277 276
277 278 279 279 278 277 277 277 276 276 277 278 279 281 283 285 287 289 290 290 291 291 292 292 292 293 293 293 293 292 291 290 288 287 286 285 284 282 281 280 279 278 276
277 280 281 281 280 279 278 279 277 277 277 279 280 282 284 287 288 289 289 290 290 291 292 292 293 293 293 293 293 292 292 291 290 289 287 286 285 284 282 281 279 278 277
277 280 281 282 282 280 279 279 278 277 278 280 282 283 285 286 287 289 290 290 291 291 291 292 293 293 293 293 294 293 293 292 291 290 289 288 286 285 283 282 280 279 277
277 280 282 283 283 282 282 281 280 281 281 282 284 285 286 287 287 288 289 290 292 293 294 294 294 295 295 296 296 296 295 294 293 292 291 289 288 287 285 284 282 280 279
276 280 282 283 282 282 282 282 282 283 284 285 286 287 288 289 289 290 291 291 292 293 294 295 296 297 297 298 298 297 297 295 294 293 292 290 289 288 286 285 283 281 280
273 277 280 281 282 282 282 284 285 285 286 287 288 289 289 290 290 291 292 293 294 294 295 295 296 296 297 297 297 296 296 295 294 293 292 290 289 287 286 284 283 281 280
271 275 278 280 281 282 284 284 286 288 289 289 290 291 291 291 292 293 293 293 293 295 296 297 297 297 297 297 296 295 295 294 293 291 290 289 288 286 285 284 283 282 280
269 273 276 279 281 283 284 286 289 290 291 291 292 292 293 293 294 294 294 295 296 297 298 298 298 298 297 297 296 295 294 293 292 291 290 289 288 287 286 285 284 283 281
267 271 275 278 281 284 285 288 290 291 292 292 293 293 294 294 295 296 296 297 298 299 300 300 299 299 298 298 297 296 295 294 293 292 291 290 289 288 288 287 285 283 282
265 269 274 278 281 284 287 289 290 292 292 293 293 294 294 295 296 297 298 299 300 300 300 301 300 299 299 298 297 297 296 296 295 295 294 293 292 291 290 289 287 285 283
264 269 274 278 282 286 288 290 291 292 293 293 294 294 295 297 298 299 300 301 302 302 302 302 301 301 301 300 300 300 300 299 299 298 297 296 295 294 292 291 288 286 283
264 269 274 279 283 286 288 290 292 293 293 294 295 296 297 298 300 301 302 302 303 303 303 303 303 303 303 303 302 302 302 302 301 299 298 297 296 295 293 291 288 284 281
265 271 276 280 284 287 288 291 293 293 294 295 296 297 299 300 301 302 303 304 304 304 304 304 304 304 304 304 304 304 303 303 301 300 299 298 297 295 293 291 287 284 281
267 273 278 282 285 287 289 291 292 293 294 296 297 298 300 302 303 304 304 305 305 306 306 306 306 306 306 306 306 305 305 304 302 300 299 298 297 295 293 290 288 286 284
270 276 280 284 286 287 289 291 292 293 295 297 298 300 302 303 304 305 305 306 306 307 307 308 308 308 308 307 307 306 305 304 303 300 299 298 296 295 293 291 289 288 286
273 278 283 285 286 287 289 290 292 294 296 298 300 302 303 304 305 306 307 307 308 308 308 309 309 309 309 308 308 307 306 305 302 299 299 297 296 294 292 291 289 289 289
276 280 282 284 286 288 290 292 293 295 297 300 301 303 304 305 306 307 308 309 310 310 310 310 310 310 310 309 309 309 307 305 301 298 298 297 295 294 292 289 288 287 288
277 278 280 284 287 289 291 293 295 297 300 302 303 304 305 306 307 308 310 311 311 311 311 311 311 311 311 310 310 309 308 306 304 300 298 297 295 294 292 290 288 287 287
276 280 285 287 289 291 293 295 298 300 302 304 305 306 307 308 308 309 310 311 311 311 311 311 311 311 311 311 311 310 308 307 307 304 301 301 297 295 293 291 288 287 287
281 285 288 289 291 293 296 298 301 303 304 305 306 307 307 308 309 310 311 312 312 313 312 312 311 312 312 312 311 311 310 310 309 306 303 303 300 298 296 292 290 288 287
284 287 289 292 294 297 299 301 303 304 306 306 307 308 309 310 310 311 312 312 313 313 312 312 312 313 314 313 313 312 312 311 309 307 303 303 300 297 295 292 291 289 289
Height
5807 5807 5807 5808 5808 5808 5808 5808 5808 5808 5807 5807 5806 5805 5804 5803 5802 5801 5799 5798 5796 5795 5794 5793 5791 5790 5788 5786 5785 5783 5781 5780 5778 5777 5776 5775 5775 5774 5774 5774 5773 5773 5773
5801 5801 5802 5802 5802 5802 5801 5801 5801 5801 5801 5800 5799 5798 5797 5796 5795 5794 5792 5790 5789 5788 5786 5785 5784 5782 5780 5778 5776 5774 5773 5771 5769 5768 5767 5766 5765 5765 5764 5764 5763 5763 5763
5795 5795 5795 5795 5795 5795 5795 5794 5794 5794 5794 5793 5792 5791 5790 5788 5787 5786 5785 5783 5781 5780 5778 5777 5775 5773 5771 5769 5767 5765 5763 5761 5760 5758 5757 5756 5754 5754 5753 5752 5752 5751 5751
5788 5788 5789 5789 5788 5788 5788 5787 5787 5787 5786 5786 5785 5784 5783 5781 5779 5778 5777 5775 5773 5771 5769 5767 5766 5764 5761 5759 5757 5754 5753 5751 5749 5747 5746 5744 5743 5741 5740 5739 5739 5738 5737
5781 5781 5781 5781 5781 5781 5780 5780 5780 5779 5779 5778 5777 5776 5775 5773 5771 5769 5768 5766 5764 5762 5761 5758 5756 5753 5751 5748 5746 5743 5741 5739 5737 5735 5733 5732 5730 5728 5726 5725 5724 5723 5722
5775 5775 5774 5774 5774 5774 5773 5772 5772 5771 5771 5770 5769 5768 5767 5765 5763 5761 5759 5757 5755 5752 5750 5748 5745 5742 5740 5737 5734 5731 5729 5726 5724 5722 5719 5717 5715 5713 5711 5709 5708 5706 5705
5768 5767 5767 5767 5766 5766 5765 5765 5764 5763 5762 5762 5761 5760 5758 5756 5753 5751 5749 5747 5745 5742 5739 5736 5733 5731 5728 5725 5722 5719 5716 5713 5710 5707 5704 5701 5699 5697 5694 5692 5690 5689 5688
5760 5760 5760 5759 5759 5758 5758 5757 5756 5755 5754 5753 5751 5750 5749 5748 5745 5742 5738 5736 5733 5730 5728 5724 5721 5717 5714 5711 5708 5704 5701 5697 5694 5690 5687 5684 5681 5678 5676 5674 5672 5670 5668
5753 5752 5752 5751 5751 5751 5750 5749 5748 5747 5746 5744 5742 5740 5738 5736 5735 5732 5729 5725 5721 5718 5715 5711 5707 5703 5700 5696 5692 5688 5684 5680 5676 5672 5668 5665 5661 5658 5655 5653 5651 5649 5647
5745 5745 5744 5744 5743 5743 5742 5741 5740 5739 5737 5735 5732 5729 5727 5724 5722 5721 5718 5714 5711 5707 5703 5698 5694 5689 5684 5679 5674 5670 5665 5661 5656 5652 5648 5644 5640 5636 5633 5630 5627 5625 5622
5738 5738 5737 5736 5736 5735 5734 5733 5731 5729 5727 5725 5723 5719 5716 5713 5710 5708 5706 5703 5699 5694 5690 5686 5681 5676 5671 5665 5659 5653 5648 5643 5638 5633 5628 5623 5619 5614 5610 5606 5603 5600 5597
5730 5730 5730 5729 5728 5727 5725 5724 5722 5720 5718 5715 5712 5708 5705 5702 5698 5695 5693 5691 5688 5683 5677 5671 5666 5661 5655 5650 5644 5637 5631 5625 5619 5614 5608 5602 5597 5592 5587 5582 5577 5573 5569
5722 5722 5722 5721 5720 5719 5717 5715 5713 5711 5708 5705 5701 5697 5693 5689 5685 5681 5678 5675 5673 5669 5664 5657 5650 5644 5638 5632 5626 5619 5613 5607 5600 5594 5587 5580 5573 5567 5561 5555 5548 5542 5536
5714 5714 5713 5713 5712 5711 5709 5707 5704 5701 5698 5694 5690 5686 5682 5677 5673 5669 5664 5660 5657 5654 5649 5642 5634 5627 5620 5613 5607 5600 5593 5586 5579 5571 5564 5556 5547 5539 5531 5523 5514 5506 5498
5705 5705 5705 5705 5704 5702 5700 5698 5695 5691 5688 5684 5679 5675 5671 5666 5661 5656 5651 5645 5640 5636 5633 5627 5618 5610 5602 5595 5587 5580 5572 5563 5554 5545 5535 5525 5515 5505 5495 5485 5476 5467 5459
5696 5697 5697 5696 5695 5693 5691 5688 5685 5681 5677 5673 5669 5664 5659 5654 5649 5643 5637 5630 5623 5617 5613 5607 5598 5590 5582 5574 5565 5556 5547 5537 5526 5514 5501 5490 5478 5468 5458 5448 5440 5433 5427
5688 5688 5688 5688 5686 5684 5681 5678 5675 5671 5666 5662 5657 5652 5647 5642 5636 5629 5622 5615 5608 5600 5594 5589 5579 5570 5561 5552 5543 5532 5520 5508 5495 5481 5468 5455 5444 5435 5426 5420 5415 5411 5407
5680 5680 5680 5679 5677 5675 5672 5668 5664 5660 5655 5650 5645 5640 5634 5628 5622 5615 5607 5600 5591 5583 5575 5570 5563 5552 5541 5529 5519 5508 5494 5479 5464 5451 5438 5426 5417 5411 5405 5401 5397 5395 5393
5672 5672 5671 5670 5667 5665 5661 5657 5653 5649 5644 5639 5633 5627 5621 5614 5607 5599 5591 5583 5574 5565 5556 5548 5541 5530 5518 5504 5493 5481 5466 5451 5436 5423 5414 5406 5400 5395 5390 5387 5384 5381 5379
5664 5663 5662 5661 5658 5655 5651 5647 5642 5637 5632 5626 5620 5613 5606 5599 5591 5584 5575 5566 5557 5548 5538 5527 5518 5507 5494 5479 5465 5454 5443 5428 5414 5403 5397 5391 5386 5382 5377 5374 5371 5368 5366
5656 5655 5653 5651 5648 5644 5640 5636 5631 5626 5620 5613 5607 5599 5592 5584 5576 5568 5559 5550 5540 5529 5518 5507 5496 5483 5469 5454 5441 5428 5419 5410 5399 5388 5385 5379 5374 5370 5365 5361 5358 5355 5353
5647 5646 5644 5641 5638 5633 5629 5625 5620 5614 5607 5601 5593 5585 5577 5569 5560 5552 5542 5531 5519 5507 5495 5484 5471 5457 5444 5430 5419 5408 5399 5394 5388 5378 5373 5369 5362 5358 5353 5349 5345 5343 5340
5639 5637 5634 5631 5627 5623 5618 5613 5608 5602 5595 5587 5579 5571 5563 5554 5545 5536 5526 5514 5500 5484 5470 5458 5446 5433 5422 5410 5402 5394 5385 5379 5373 5365 5360 5358 5352 5347 5341 5336 5332 5330 5328
5630 5627 5624 5621 5617 5612 5607 5602 5596 5589 5582 5574 5565 5556 5548 5538 5528 5519 5509 5497 5481 5465 5451 5437 5425 5414 5403 5394 5387 5381 5374 5369 5362 5352 5345 5344 5340 5335 5330 5323 5319 5317 5315
5621 5618 5615 5611 5607 5602 5596 5590 5584 5576 5569 5560 5551 5541 5532 5523 5512 5501 5490 5477 5463 5446 5430 5416 5406 5397 5389 5381 5374 5369 5362 5356 5352 5344 5334 5331 5327 5324 5319 5312 5307 5304 5302
5612 5609 5605 5601 5596 5591 5585 5578 5571 5564 5557 5548 5538 5527 5516 5505 5493 5480 5468 5456 5443 5429 5415 5403 5393 5384 5377 5370 5362 5356 5349 5344 5338 5333 5325 5321 5315 5310 5310 5304 5298 5293 5291